Sacramento, CA

2:32 PM PST on December 07, 2016 (GMT -0800)
Sacramento Executive

Weather History for KSAC - June, 2013

Change the Weather History Date:

Friday, June 14, 2013

  Actual Average Record
Temperature  
Mean Temperature 74 °F -  
Max Temperature 89 °F 87 °F 113 °F (1961)
Min Temperature 59 °F 56 °F 47 °F (1979)
Degree Days  
Heating Degree Days 0    
Cooling Degree Days 9    
Growing Degree Days 24 (Base 50)    
Moisture  
Dew Point 39 °F    
Average Humidity 38    
Maximum Humidity 64    
Minimum Humidity 12    
Precipitation  
Precipitation 0.00 in 0.00 in 0.11 in (1995)
Month to date precipitation 0.00 0.15  
Year to date precipitation 3.69 11.84  
Since 1 July precipitation 14.98  
Sea Level Pressure  
Sea Level Pressure 29.87 in    
Wind  
Wind Speed 8 mph (WNW)    
Max Wind Speed 22 mph    
Max Gust Speed 26 mph    
Visibility 10 miles    
Events      
T = Trace of Precipitation, MM = Missing Value Source: NWS Daily Summary

Daily Weather History Graph

Daily Weather History Graph

Search for Another Location

Airport or City:

Trip Planner

Search our weather history database for the weather conditions in past years. The results will help you decide how hot, cold, wet, or windy it might be!

Date:

Astronomy

Jun. 14, 2013 Rise Set
Actual Time 5:41 AM PDT 8:31 PM PDT
Civil Twilight 5:09 AM PDT 9:03 PM PDT
Nautical Twilight 4:29 AM PDT 9:43 PM PDT
Astronomical Twilight 3:44 AM PDT 10:28 PM PDT
Moon 11:17 AM PDT (6/14) No Moon Set
Length of Visible Light 15h 53m
Length of Day
14h 50m
Waxing Crescent, 31% of the Moon is Illuminated
Jun 14
Waxing Crescent
Jun 16
First Quarter
Jun 23
Full
Jun 29
Last Quarter
Jul 8
New

Hourly Weather History & Observations

Time (PDT) Temp. Dew Point Humidity Pressure Visibility Wind Dir Wind Speed Gust Speed Precip Events Conditions
12:53 AM 60.1 °F 48.9 °F 67% 29.95 in 10.0 mi Calm Calm - N/A   Clear
1:53 AM 66.0 °F 48.9 °F 54% 29.93 in 10.0 mi WNW 4.6 mph - N/A   Clear
2:53 AM 66.0 °F 46.9 °F 50% 29.92 in 10.0 mi NW 10.4 mph - N/A   Clear
3:53 AM 64.9 °F 44.1 °F 47% 29.91 in 10.0 mi NW 10.4 mph - N/A   Clear
4:53 AM 66.0 °F 39.0 °F 37% 29.91 in 10.0 mi NNW 13.8 mph - N/A   Clear
5:53 AM 66.9 °F 37.0 °F 33% 29.92 in 10.0 mi NNW 11.5 mph - N/A   Clear
6:53 AM 66.9 °F 37.0 °F 33% 29.91 in 10.0 mi NNW 12.7 mph 21.9 mph N/A   Clear
7:53 AM 70.0 °F 36.0 °F 29% 29.92 in 10.0 mi NNW 15.0 mph 26.5 mph N/A   Clear
8:53 AM 72.0 °F 37.9 °F 29% 29.92 in 10.0 mi NNW 21.9 mph 25.3 mph N/A   Clear
9:53 AM 75.9 °F 39.0 °F 26% 29.91 in 10.0 mi North 11.5 mph 19.6 mph N/A   Clear
10:53 AM 78.1 °F 37.9 °F 24% 29.91 in 10.0 mi NNW 12.7 mph 20.7 mph N/A   Clear
11:53 AM 81.0 °F 37.0 °F 21% 29.90 in 10.0 mi NNW 10.4 mph - N/A   Clear
12:53 PM 82.9 °F 37.9 °F 20% 29.89 in 10.0 mi WNW 11.5 mph - N/A   Clear
1:53 PM 84.9 °F 37.0 °F 18% 29.87 in 10.0 mi NW 9.2 mph - N/A   Clear
2:53 PM 86.0 °F 36.0 °F 17% 29.85 in 10.0 mi NNW 9.2 mph - N/A   Clear
3:53 PM 89.1 °F 30.9 °F 12% 29.83 in 10.0 mi NNW 10.4 mph - N/A   Clear
4:53 PM 87.1 °F 32.0 °F 14% 29.81 in 10.0 mi WSW 5.8 mph - N/A   Clear
5:53 PM 87.1 °F 30.9 °F 13% 29.78 in 10.0 mi WNW 4.6 mph - N/A   Clear
6:53 PM 87.1 °F 35.1 °F 16% 29.78 in 10.0 mi West 6.9 mph - N/A   Clear
7:53 PM 81.0 °F 44.1 °F 27% 29.79 in 10.0 mi SW 5.8 mph - N/A   Clear
8:53 PM 75.0 °F 45.0 °F 34% 29.79 in 10.0 mi SSW 5.8 mph - N/A   Clear
9:53 PM 72.0 °F 43.0 °F 35% 29.80 in 10.0 mi SW 8.1 mph - N/A   Clear
10:53 PM 68.0 °F 42.1 °F 39% 29.80 in 10.0 mi SW 8.1 mph - N/A   Clear
11:53 PM 64.9 °F 44.1 °F 47% 29.80 in 10.0 mi SSW 5.8 mph - N/A   Clear